Time,TemperatureF,DewpointF,PressureIn,WindDirection,WindDirectionDegrees,WindSpeedMPH,WindSpeedGustMPH,Humidity,HourlyPrecipIn,Conditions,Clouds,dailyrainin,SoftwareType,DateUTC
2013-04-23 00:02:00,51.0,27.0,-100.00,SE,127,5.0,13.0,39,-99.99,,,-99.99,,2013-04-23 07:02:00,
2013-04-23 00:11:00,51.0,26.0,-100.00,SSE,150,5.0,12.0,38,-99.99,,,-99.99,,2013-04-23 07:11:00,
2013-04-23 00:21:00,51.0,27.0,-100.00,SSE,165,5.0,11.0,39,-99.99,,,-99.99,,2013-04-23 07:21:00,
2013-04-23 00:32:00,50.0,27.0,-100.00,SSE,152,5.0,11.0,40,-99.99,,,-99.99,,2013-04-23 07:32:00,
2013-04-23 00:42:00,51.0,26.0,-100.00,SSE,155,5.0,10.0,37,-99.99,,,-99.99,,2013-04-23 07:42:00,
2013-04-23 00:52:00,51.0,25.0,-100.00,SE,141,4.0,8.0,36,-99.99,,,-99.99,,2013-04-23 07:52:00,
2013-04-23 01:01:00,51.0,23.0,-100.00,SSE,156,6.0,13.0,33,-99.99,,,-99.99,,2013-04-23 08:01:00,
2013-04-23 01:11:00,52.0,23.0,-100.00,SE,134,5.0,10.0,32,-99.99,,,-99.99,,2013-04-23 08:11:00,
2013-04-23 01:21:00,52.0,23.0,-100.00,SE,129,7.0,11.0,32,-99.99,,,-99.99,,2013-04-23 08:21:00,
2013-04-23 01:31:00,52.0,21.0,-100.00,SE,134,8.0,14.0,29,-99.99,,,-99.99,,2013-04-23 08:31:00,
2013-04-23 01:42:00,52.0,22.0,-100.00,SE,135,7.0,12.0,30,-99.99,,,-99.99,,2013-04-23 08:42:00,
2013-04-23 01:52:00,52.0,21.0,-100.00,SE,138,7.0,12.0,29,-99.99,,,-99.99,,2013-04-23 08:52:00,
2013-04-23 02:01:00,52.0,20.0,-100.00,SE,126,5.0,10.0,28,-99.99,,,-99.99,,2013-04-23 09:01:00,
2013-04-23 02:11:00,52.0,19.0,-100.00,ESE,102,5.0,9.0,27,-99.99,,,-99.99,,2013-04-23 09:11:00,
2013-04-23 02:21:00,52.0,19.0,-100.00,ESE,120,6.0,12.0,27,-99.99,,,-99.99,,2013-04-23 09:21:00,
2013-04-23 02:32:00,52.0,19.0,-100.00,SE,132,6.0,14.0,27,-99.99,,,-99.99,,2013-04-23 09:32:00,
2013-04-23 02:42:00,52.0,18.0,-100.00,SE,125,6.0,10.0,26,-99.99,,,-99.99,,2013-04-23 09:42:00,
2013-04-23 02:52:00,52.0,19.0,-100.00,SE,127,5.0,9.0,27,-99.99,,,-99.99,,2013-04-23 09:52:00,
2013-04-23 03:02:00,52.0,19.0,-100.00,ESE,108,3.0,8.0,27,-99.99,,,-99.99,,2013-04-23 10:02:00,
2013-04-23 03:12:00,52.0,17.0,-100.00,ESE,123,2.0,6.0,25,-99.99,,,-99.99,,2013-04-23 10:12:00,
2013-04-23 03:22:00,52.0,17.0,-100.00,ESE,118,4.0,7.0,25,-99.99,,,-99.99,,2013-04-23 10:22:00,
2013-04-23 03:32:00,53.0,17.0,-100.00,ESE,103,5.0,8.0,24,-99.99,,,-99.99,,2013-04-23 10:32:00,
2013-04-23 03:42:00,53.0,17.0,-100.00,ESE,107,4.0,7.0,24,-99.99,,,-99.99,,2013-04-23 10:42:00,
2013-04-23 03:52:00,53.0,17.0,-100.00,ESE,103,4.0,7.0,24,-99.99,,,-99.99,,2013-04-23 10:52:00,
2013-04-23 04:02:00,53.0,17.0,-100.00,ESE,121,6.0,9.0,24,-99.99,,,-99.99,,2013-04-23 11:02:00,
2013-04-23 04:12:00,53.0,19.0,-100.00,SE,144,5.0,11.0,26,-99.99,,,-99.99,,2013-04-23 11:12:00,
2013-04-23 04:21:00,53.0,20.0,-100.00,SSE,155,4.0,9.0,27,-99.99,,,-99.99,,2013-04-23 11:21:00,
2013-04-23 04:32:00,53.0,21.0,-100.00,South,169,5.0,10.0,28,-99.99,,,-99.99,,2013-04-23 11:32:00,
2013-04-23 04:42:00,53.0,22.0,-100.00,South,183,4.0,8.0,29,-99.99,,,-99.99,,2013-04-23 11:42:00,
2013-04-23 04:52:00,53.0,23.0,-100.00,SSW,200,6.0,11.0,31,-99.99,,,-99.99,,2013-04-23 11:52:00,
2013-04-23 05:01:00,54.0,24.0,-100.00,SW,216,4.0,9.0,31,-99.99,,,-99.99,,2013-04-23 12:01:00,
2013-04-23 05:12:00,54.0,23.0,-100.00,SSW,201,3.0,7.0,30,-99.99,,,-99.99,,2013-04-23 12:12:00,
2013-04-23 05:22:00,54.0,24.0,-100.00,SSE,158,3.0,6.0,31,-99.99,,,-99.99,,2013-04-23 12:22:00,
2013-04-23 05:32:00,53.0,23.0,-100.00,South,190,3.0,6.0,31,-99.99,,,-99.99,,2013-04-23 12:32:00,
2013-04-23 05:41:00,53.0,23.0,-100.00,South,190,3.0,6.0,31,-99.99,,,-99.99,,2013-04-23 12:41:00,
2013-04-23 05:51:00,53.0,24.0,-100.00,ESE,116,2.0,5.0,32,-99.99,,,-99.99,,2013-04-23 12:51:00,
2013-04-23 06:01:00,54.0,25.0,-100.00,ENE,61,3.0,5.0,32,-99.99,,,-99.99,,2013-04-23 13:01:00,
2013-04-23 06:11:00,54.0,25.0,-100.00,NE,53,1.0,3.0,32,-99.99,,,-99.99,,2013-04-23 13:11:00,
2013-04-23 06:21:00,54.0,25.0,-100.00,ENE,60,3.0,7.0,32,-99.99,,,-99.99,,2013-04-23 13:21:00,
2013-04-23 06:32:00,55.0,26.0,-100.00,NW,307,4.0,7.0,33,-99.99,,,-99.99,,2013-04-23 13:32:00,
2013-04-23 06:41:00,52.0,27.0,-100.00,NW,305,5.0,8.0,37,-99.99,,,-99.99,,2013-04-23 13:41:00,
2013-04-23 06:52:00,54.0,28.0,-100.00,North,357,5.0,9.0,36,-99.99,,,-99.99,,2013-04-23 13:52:00,
2013-04-23 07:01:00,54.0,28.0,-100.00,North,357,5.0,9.0,36,-99.99,,,-99.99,,2013-04-23 14:01:00,
2013-04-23 07:11:00,57.0,26.0,-100.00,NW,314,6.0,11.0,30,-99.99,,,-99.99,,2013-04-23 14:11:00,
2013-04-23 07:22:00,58.0,25.0,-100.00,NW,313,8.0,14.0,28,-99.99,,,-99.99,,2013-04-23 14:22:00,
2013-04-23 07:31:00,58.0,25.0,-100.00,North,358,5.0,10.0,28,-99.99,,,-99.99,,2013-04-23 14:31:00,
2013-04-23 07:42:00,60.0,22.0,-100.00,North,357,7.0,9.0,23,-99.99,,,-99.99,,2013-04-23 14:42:00,
2013-04-23 08:01:00,62.0,23.0,-100.00,NW,325,3.0,7.0,22,-99.99,,,-99.99,,2013-04-23 15:01:00,
2013-04-23 08:11:00,62.0,24.0,-100.00,NE,39,2.0,9.0,23,-99.99,,,-99.99,,2013-04-23 15:11:00,
2013-04-23 08:21:00,62.0,24.0,-100.00,ENE,70,6.0,13.0,23,-99.99,,,-99.99,,2013-04-23 15:21:00,
2013-04-23 08:32:00,62.0,24.0,-100.00,ENE,70,10.0,17.0,23,-99.99,,,-99.99,,2013-04-23 15:32:00,
2013-04-23 08:42:00,63.0,26.0,-100.00,East,86,10.0,16.0,24,-99.99,,,-99.99,,2013-04-23 15:42:00,
2013-04-23 08:52:00,62.0,26.0,-100.00,East,83,16.0,23.0,25,-99.99,,,-99.99,,2013-04-23 15:52:00,
2013-04-23 09:02:00,62.0,26.0,-100.00,East,80,14.0,22.0,25,-99.99,,,-99.99,,2013-04-23 16:02:00,
2013-04-23 09:12:00,62.0,26.0,-100.00,East,79,15.0,25.0,25,-99.99,,,-99.99,,2013-04-23 16:12:00,
2013-04-23 09:23:00,62.0,27.0,-100.00,East,80,18.0,27.0,26,-99.99,,,-99.99,,2013-04-23 16:23:00,
2013-04-23 09:33:00,62.0,27.0,-100.00,East,83,22.0,31.0,26,-99.99,,,-99.99,,2013-04-23 16:33:00,
2013-04-23 09:42:00,62.0,26.0,-100.00,East,82,22.0,33.0,25,-99.99,,,-99.99,,2013-04-23 16:42:00,
2013-04-23 09:52:00,62.0,27.0,-100.00,East,81,19.0,34.0,26,-99.99,,,-99.99,,2013-04-23 16:52:00,
2013-04-23 10:02:00,62.0,26.0,-100.00,East,83,20.0,29.0,25,-99.99,,,-99.99,,2013-04-23 17:02:00,
2013-04-23 10:11:00,62.0,26.0,-100.00,East,85,23.0,32.0,25,-99.99,,,-99.99,,2013-04-23 17:11:00,
2013-04-23 10:22:00,62.0,26.0,-100.00,East,84,22.0,33.0,25,-99.99,,,-99.99,,2013-04-23 17:22:00,
2013-04-23 10:32:00,62.0,26.0,-100.00,East,82,21.0,33.0,25,-99.99,,,-99.99,,2013-04-23 17:32:00,
2013-04-23 10:42:00,62.0,26.0,-100.00,East,81,22.0,32.0,25,-99.99,,,-99.99,,2013-04-23 17:42:00,
2013-04-23 10:53:00,62.0,26.0,-100.00,East,84,20.0,30.0,25,-99.99,,,-99.99,,2013-04-23 17:53:00,
2013-04-23 11:01:00,62.0,26.0,-100.00,East,84,20.0,30.0,25,-99.99,,,-99.99,,2013-04-23 18:01:00,
2013-04-23 11:12:00,63.0,27.0,-100.00,East,83,20.0,31.0,25,-99.99,,,-99.99,,2013-04-23 18:12:00,
2013-04-23 11:22:00,62.0,26.0,-100.00,East,84,20.0,30.0,25,-99.99,,,-99.99,,2013-04-23 18:22:00,
2013-04-23 11:32:00,63.0,27.0,-100.00,East,86,18.0,30.0,25,-99.99,,,-99.99,,2013-04-23 18:32:00,
2013-04-23 11:42:00,63.0,26.0,-100.00,East,85,17.0,26.0,24,-99.99,,,-99.99,,2013-04-23 18:42:00,
2013-04-23 11:52:00,63.0,25.0,-100.00,ENE,74,16.0,31.0,23,-99.99,,,-99.99,,2013-04-23 18:52:00,
2013-04-23 12:02:00,63.0,25.0,-100.00,ENE,74,16.0,26.0,23,-99.99,,,-99.99,,2013-04-23 19:02:00,
2013-04-23 12:11:00,63.0,24.0,-100.00,ENE,76,19.0,34.0,22,-99.99,,,-99.99,,2013-04-23 19:11:00,
2013-04-23 12:21:00,64.0,24.0,-100.00,East,79,17.0,26.0,22,-99.99,,,-99.99,,2013-04-23 19:21:00,
2013-04-23 12:32:00,64.0,24.0,-100.00,East,82,16.0,26.0,22,-99.99,,,-99.99,,2013-04-23 19:32:00,
2013-04-23 12:42:00,64.0,23.0,-100.00,ENE,71,14.0,25.0,21,-99.99,,,-99.99,,2013-04-23 19:42:00,
2013-04-23 12:52:00,64.0,23.0,-100.00,East,84,16.0,27.0,21,-99.99,,,-99.99,,2013-04-23 19:52:00,
2013-04-23 13:01:00,64.0,23.0,-100.00,ENE,72,19.0,29.0,21,-99.99,,,-99.99,,2013-04-23 20:01:00,
2013-04-23 13:11:00,64.0,24.0,-100.00,ENE,59,16.0,26.0,22,-99.99,,,-99.99,,2013-04-23 20:11:00,
2013-04-23 13:21:00,64.0,23.0,-100.00,East,81,16.0,24.0,21,-99.99,,,-99.99,,2013-04-23 20:21:00,
2013-04-23 13:31:00,66.0,25.0,-100.00,East,85,12.0,23.0,21,-99.99,,,-99.99,,2013-04-23 20:31:00,
2013-04-23 13:41:00,65.0,23.0,-100.00,East,82,16.0,25.0,20,-99.99,,,-99.99,,2013-04-23 20:41:00,
2013-04-23 13:51:00,66.0,23.0,-100.00,East,84,14.0,24.0,19,-99.99,,,-99.99,,2013-04-23 20:51:00,
2013-04-23 14:01:00,66.0,23.0,-100.00,East,84,14.0,24.0,19,-99.99,,,-99.99,,2013-04-23 21:01:00,
2013-04-23 14:11:00,65.0,23.0,-100.00,East,79,17.0,24.0,20,-99.99,,,-99.99,,2013-04-23 21:11:00,
2013-04-23 14:21:00,66.0,23.0,-100.00,ENE,76,17.0,25.0,19,-99.99,,,-99.99,,2013-04-23 21:21:00,
2013-04-23 14:32:00,66.0,23.0,-100.00,East,79,14.0,23.0,19,-99.99,,,-99.99,,2013-04-23 21:32:00,
2013-04-23 14:43:00,66.0,23.0,-100.00,ENE,67,14.0,24.0,19,-99.99,,,-99.99,,2013-04-23 21:43:00,
2013-04-23 14:52:00,66.0,21.0,-100.00,ENE,68,13.0,23.0,18,-99.99,,,-99.99,,2013-04-23 21:52:00,
2013-04-23 15:02:00,67.0,22.0,-100.00,East,95,13.0,23.0,18,-99.99,,,-99.99,,2013-04-23 22:02:00,
2013-04-23 15:12:00,67.0,21.0,-100.00,ENE,77,13.0,21.0,17,-99.99,,,-99.99,,2013-04-23 22:12:00,
2013-04-23 15:22:00,66.0,21.0,-100.00,ENE,63,13.0,20.0,18,-99.99,,,-99.99,,2013-04-23 22:22:00,
2013-04-23 15:32:00,67.0,21.0,-100.00,East,89,12.0,20.0,17,-99.99,,,-99.99,,2013-04-23 22:32:00,
2013-04-23 15:42:00,67.0,21.0,-100.00,ENE,76,14.0,22.0,17,-99.99,,,-99.99,,2013-04-23 22:42:00,
2013-04-23 15:52:00,67.0,21.0,-100.00,East,84,12.0,21.0,17,-99.99,,,-99.99,,2013-04-23 22:52:00,
2013-04-23 16:02:00,67.0,21.0,-100.00,East,79,11.0,21.0,17,-99.99,,,-99.99,,2013-04-23 23:02:00,
2013-04-23 16:12:00,67.0,19.0,-100.00,ENE,70,14.0,22.0,16,-99.99,,,-99.99,,2013-04-23 23:12:00,
2013-04-23 16:22:00,67.0,19.0,-100.00,East,80,12.0,20.0,16,-99.99,,,-99.99,,2013-04-23 23:22:00,
2013-04-23 16:31:00,67.0,19.0,-100.00,ENE,68,12.0,19.0,16,-99.99,,,-99.99,,2013-04-23 23:31:00,
2013-04-23 16:42:00,67.0,19.0,-100.00,ENE,64,11.0,20.0,16,-99.99,,,-99.99,,2013-04-23 23:42:00,
2013-04-23 16:52:00,67.0,19.0,-100.00,ENE,62,10.0,18.0,16,-99.99,,,-99.99,,2013-04-23 23:52:00,
2013-04-23 17:01:00,67.0,19.0,-100.00,ENE,64,10.0,15.0,16,-99.99,,,-99.99,,2013-04-24 00:01:00,
2013-04-23 17:11:00,68.0,20.0,-100.00,ENE,75,9.0,16.0,16,-99.99,,,-99.99,,2013-04-24 00:11:00,
2013-04-23 17:21:00,67.0,19.0,-100.00,ENE,75,9.0,15.0,16,-99.99,,,-99.99,,2013-04-24 00:21:00,
2013-04-23 17:32:00,67.0,18.0,-100.00,NE,53,6.0,13.0,15,-99.99,,,-99.99,,2013-04-24 00:32:00,
2013-04-23 17:51:00,68.0,19.0,-100.00,ENE,69,7.0,14.0,15,-99.99,,,-99.99,,2013-04-24 00:51:00,
2013-04-23 18:01:00,67.0,18.0,-100.00,ENE,70,8.0,14.0,15,-99.99,,,-99.99,,2013-04-24 01:01:00,
2013-04-23 18:11:00,67.0,18.0,-100.00,NE,46,7.0,16.0,15,-99.99,,,-99.99,,2013-04-24 01:11:00,
2013-04-23 18:21:00,67.0,18.0,-100.00,ENE,62,8.0,15.0,15,-99.99,,,-99.99,,2013-04-24 01:21:00,
2013-04-23 18:31:00,66.0,17.0,-100.00,NE,54,7.0,13.0,15,-99.99,,,-99.99,,2013-04-24 01:31:00,
2013-04-23 18:42:00,66.0,17.0,-100.00,ENE,60,8.0,11.0,15,-99.99,,,-99.99,,2013-04-24 01:42:00,
2013-04-23 18:52:00,66.0,17.0,-100.00,ENE,61,7.0,12.0,15,-99.99,,,-99.99,,2013-04-24 01:52:00,
2013-04-23 19:02:00,66.0,17.0,-100.00,NE,48,6.0,11.0,15,-99.99,,,-99.99,,2013-04-24 02:02:00,
2013-04-23 19:34:00,65.0,18.0,-100.00,NE,36,4.0,9.0,16,-99.99,,,-99.99,,2013-04-24 02:34:00,
2013-04-23 19:45:00,64.0,17.0,-100.00,NNE,30,5.0,7.0,16,-99.99,,,-99.99,,2013-04-24 02:45:00,
2013-04-23 19:54:00,64.0,17.0,-100.00,NNE,27,6.0,9.0,16,-99.99,,,-99.99,,2013-04-24 02:54:00,
2013-04-23 20:03:00,63.0,16.0,-100.00,NE,43,6.0,10.0,16,-99.99,,,-99.99,,2013-04-24 03:03:00,
2013-04-23 20:13:00,63.0,16.0,-100.00,NE,56,6.0,9.0,16,-99.99,,,-99.99,,2013-04-24 03:13:00,
2013-04-23 20:24:00,62.0,17.0,-100.00,NE,51,5.0,8.0,17,-99.99,,,-99.99,,2013-04-24 03:24:00,
2013-04-23 20:35:00,63.0,16.0,-100.00,NE,50,8.0,12.0,16,-99.99,,,-99.99,,2013-04-24 03:35:00,
2013-04-23 20:54:00,63.0,16.0,-100.00,NE,47,9.0,14.0,16,-99.99,,,-99.99,,2013-04-24 03:54:00,
2013-04-23 21:02:00,63.0,16.0,-100.00,NE,53,9.0,14.0,16,-99.99,,,-99.99,,2013-04-24 04:02:00,
2013-04-23 21:12:00,62.0,15.0,-100.00,NE,53,7.0,12.0,16,-99.99,,,-99.99,,2013-04-24 04:12:00,
2013-04-23 21:22:00,62.0,17.0,-100.00,NE,49,7.0,10.0,17,-99.99,,,-99.99,,2013-04-24 04:22:00,
2013-04-23 21:33:00,62.0,15.0,-100.00,NE,47,7.0,10.0,16,-99.99,,,-99.99,,2013-04-24 04:33:00,
2013-04-23 21:43:00,62.0,15.0,-100.00,NE,52,8.0,11.0,16,-99.99,,,-99.99,,2013-04-24 04:43:00,
2013-04-23 21:52:00,62.0,15.0,-100.00,NE,50,7.0,9.0,16,-99.99,,,-99.99,,2013-04-24 04:52:00,
2013-04-23 22:02:00,61.0,16.0,-100.00,NE,40,5.0,7.0,17,-99.99,,,-99.99,,2013-04-24 05:02:00,
2013-04-23 22:12:00,61.0,17.0,-100.00,NE,34,3.0,6.0,18,-99.99,,,-99.99,,2013-04-24 05:12:00,
2013-04-23 22:21:00,59.0,17.0,-100.00,NW,313,1.0,3.0,19,-99.99,,,-99.99,,2013-04-24 05:21:00,
2013-04-23 22:32:00,60.0,18.0,-100.00,North,10,2.0,4.0,19,-99.99,,,-99.99,,2013-04-24 05:32:00,
2013-04-23 22:42:00,60.0,16.0,-100.00,NE,39,4.0,5.0,18,-99.99,,,-99.99,,2013-04-24 05:42:00,
2013-04-23 22:51:00,60.0,16.0,-100.00,North,9,2.0,4.0,18,-99.99,,,-99.99,,2013-04-24 05:51:00,
2013-04-23 23:02:00,61.0,17.0,-100.00,NE,39,3.0,4.0,18,-99.99,,,-99.99,,2013-04-24 06:02:00,
2013-04-23 23:11:00,61.0,16.0,-100.00,NE,56,3.0,5.0,17,-99.99,,,-99.99,,2013-04-24 06:11:00,
2013-04-23 23:21:00,61.0,16.0,-100.00,ENE,59,4.0,7.0,17,-99.99,,,-99.99,,2013-04-24 06:21:00,
2013-04-23 23:32:00,60.0,18.0,-100.00,East,91,3.0,6.0,19,-99.99,,,-99.99,,2013-04-24 06:32:00,
2013-04-23 23:41:00,59.0,17.0,-100.00,ENE,74,6.0,7.0,19,-99.99,,,-99.99,,2013-04-24 06:41:00,
2013-04-23 23:51:00,59.0,17.0,-100.00,ENE,68,8.0,10.0,19,-99.99,,,-99.99,,2013-04-24 06:51:00,